Home   Weather   Cluj-Napoca   Past weeks

Flag for Romania Past Weather in Cluj-Napoca, Romania — Yesterday and Last 2 Weeks

Now
48 °F

Sunny.


Feels Like: 48 °F
Forecast: 42 / 68 °F
Wind: No wind

Location: Cluj Airport-Napoca

Current Time: Sep 27, 2016 at 8:33:43 AM

Latest Report: Sep 27, 2016 at 8:00 AM


Visibility: 10 mi

Pressure: 30.27 "Hg

Humidity: 94%

Dew Point: 46 °F

Location of Cluj-NapocaLocation

Past Weather in Cluj-Napoca — Graph

°F

Cluj-Napoca Temperature Yesterday

Maximum temperature yesterday: 66 °F (at 3:30 PM)
Minimum temperature yesterday: 43 °F (at 5:30 AM)
Average temperature yesterday: 53 °F

High & Low Weather Summary for the Past Weeks

 TemperatureHumidityPressure
High84 °F (Sep 12, 5:00 PM)100% (Sep 15, 6:30 AM)30.36 "Hg (Sep 15, 6:30 AM)
Low37 °F (Sep 24, 7:30 AM)34% (Sep 13, 4:30 PM)29.68 "Hg (Sep 19, 4:30 PM)
Average61 °F72%30.04 "Hg
* Reported Sep 12 7:00 AM — Sep 27 7:30 AM, Cluj-Napoca, Weather by CustomWeather, © 2016

Note: Actual official high and low records may vary slightly from our data, if they occured in-between our weather recording intervals... More about our weather records

Advertising

Cluj-Napoca Weather History for the Previous 24 Hours

Scroll right to see more
 ConditionsComfort  
Time TempWeatherWind HumidityBarometerVisibility
7:30 AM
Tue, Sep 27
48 °FSunny.No wind94%30.27 "Hg10 mi
7:00 AM46 °FClear.2 mph93%30.24 "Hg10 mi
6:30 AM48 °FClear.2 mph87%30.24 "Hg10 mi
6:00 AM48 °FOvercast.No wind87%30.24 "HgN/A
5:30 AM48 °FClear.No wind87%30.24 "Hg10 mi
5:00 AM46 °FClear.2 mph93%30.24 "Hg10 mi
4:00 AM48 °FClear.No wind94%30.24 "Hg10 mi
3:00 AM48 °FClear.No wind94%30.24 "Hg10 mi
2:00 AM50 °FClear.No wind82%30.24 "Hg10 mi
1:00 AM50 °FClear.No wind82%30.24 "Hg10 mi
12:00 AM50 °FClear.2 mph82%30.24 "Hg10 mi
11:30 PM
Mon, Sep 26
50 °FClear.3 mph82%30.24 "Hg10 mi
11:00 PM50 °FClear.3 mph82%30.24 "Hg10 mi
10:30 PM50 °FClear.3 mph82%30.24 "Hg10 mi
10:00 PM50 °FClear.3 mph76%30.24 "Hg10 mi
9:30 PM50 °FClear.2 mph82%30.21 "Hg10 mi
8:30 PM52 °FClear.1 mph77%30.21 "Hg10 mi
8:00 PM54 °FClear.3 mph67%30.21 "Hg10 mi
7:30 PM55 °FPassing clouds.1 mph67%30.18 "HgN/A
7:00 PM59 °FScattered clouds.3 mph55%30.18 "HgN/A
6:30 PM59 °FScattered clouds.3 mph55%30.18 "HgN/A
5:30 PM61 °FScattered clouds.6 mph48%30.18 "HgN/A
5:00 PM63 °FScattered clouds.7 mph45%30.18 "HgN/A
4:30 PM64 °FPartly sunny.6 mph40%30.18 "HgN/A
4:00 PM66 °FBroken clouds.6 mph40%30.18 "HgN/A
3:30 PM66 °FBroken clouds.5 mph43%30.18 "HgN/A
3:00 PM63 °FBroken clouds.7 mph45%30.18 "HgN/A
2:00 PM61 °FScattered clouds.2 mph48%30.18 "HgN/A
1:30 PM63 °FScattered clouds.2 mph45%30.18 "HgN/A
1:00 PM63 °FScattered clouds.5 mph49%30.18 "HgN/A
12:30 PM61 °FPassing clouds.7 mph52%30.18 "HgN/A
12:00 PM61 °FPassing clouds.7 mph52%30.18 "HgN/A
11:30 AM59 °FPassing clouds.8 mph59%30.18 "HgN/A
11:00 AM57 °FPassing clouds.5 mph67%30.18 "HgN/A
10:30 AM55 °FSunny.2 mph72%30.18 "Hg10 mi
10:00 AM52 °FSunny.2 mph77%30.18 "Hg10 mi
9:30 AM50 °FSunny.2 mph76%30.18 "Hg10 mi
9:00 AM48 °FPassing clouds.3 mph82%30.18 "HgN/A
8:30 AM46 °FSunny.2 mph82%30.18 "Hg10 mi
8:00 AM45 °FSunny.1 mph87%30.15 "Hg10 mi
Weather by CustomWeather, © 2016

See weather overviewHow to use our weather pages